sat.trackr.live / text

‹ back to catalog

2024-174B

NORAD 61239 · 2024-174B

PAYLOAD ACTIVE UNKNOWN

§ Identity

Operator
Country
PRC
Launch date
2024-09-24
Launch site
JSC
Launch vehicle
Mass (kg)
RCS (m²)

External: N2YO · Heavens-Above · Gunter

§ Orbital elements

Epoch: 2026-09-22T23:14:19.751424Z

Period
95.32 min
Inclination
97.4534°
Eccentricity
0.0019536
Mean motion
15.10701979 rev/d
Perigee alt
520.6 km
Apogee alt
547.6 km
Semi-major
6,912.2 km
B*
1.4182e-4
RAAN
266.7888°
Arg perigee
316.2277°
Mean anomaly
43.7403°
Rev number
11,015

§ Raw data

2024-174B1 61239U 24174B   26265.96828416  .00002295  00000+0  14182-3 0  99902 61239  97.4534 266.7888 0019536 316.2277  43.7403 15.10701979110151

JSON: /api/v1/satellites/61239 · /tle

For live sub-satellite position, see the globe view (requires WebGL).

§ Visibility from observer

Set your observer location to see the next 7 days of passes ≥ 10°. The values pass through the URL so the page stays shareable.

No JS? Fill the form by hand. The geolocation button needs JavaScript.